Los Angeles, CA

11:16 AM PDT on August 26, 2016 (GMT -0700)
Los Angeles Downtown

Weather History for KCQT - November, 2013

Change the Weather History Date:

Monday, November 25, 2013

  Actual Average Record
Temperature  
Mean Temperature 60 °F 60 °F  
Max Temperature 72 °F 70 °F 92 °F (1977)
Min Temperature 48 °F 50 °F 36 °F (1879)
Degree Days  
Heating Degree Days 5 5  
Month to date heating degree days 44 83  
Since 1 July heating degree days 68 103  
Cooling Degree Days 0 0  
Month to date cooling degree days 45 32  
Year to date cooling degree days 1209 1239  
Growing Degree Days 9 (Base 50)    
Moisture  
Dew Point 44 °F    
Average Humidity 58    
Maximum Humidity 83    
Minimum Humidity 33    
Precipitation  
Precipitation 0.00 in 0.04 in 0.78 in (1885)
Month to date precipitation 0.39 0.82  
Year to date precipitation 3.17 12.38  
Since 1 July precipitation 0.54  
Sea Level Pressure  
Sea Level Pressure 30.19 in    
Wind  
Wind Speed 1 mph (North)    
Max Wind Speed 6 mph    
Max Gust Speed 12 mph    
Visibility 10 miles    
Events      
T = Trace of Precipitation, MM = Missing Value Source: NWS Daily Summary

Daily Weather History Graph

Daily Weather History Graph

Search for Another Location

Airport or City:

Trip Planner

Search our weather history database for the weather conditions in past years. The results will help you decide how hot, cold, wet, or windy it might be!

Date:

Astronomy

Nov. 25, 2013 Rise Set
Actual Time 6:35 AM PST 4:44 PM PST
Civil Twilight 6:08 AM PST 5:12 PM PST
Nautical Twilight 5:37 AM PST 5:42 PM PST
Astronomical Twilight 5:07 AM PST 6:12 PM PST
Moon No Moon Rise 12:05 PM PST (11/25)
Length of Visible Light 11h 03m
Length of Day
10h 09m
Waning Gibbous, 50% of the Moon is Illuminated
Nov 25
Waning Gibbous
Dec 2
New
Dec 9
First Quarter
Dec 17
Full
Dec 25
Last Quarter

Hourly Weather History & Observations

Time (PST) Temp. Dew Point Humidity Pressure Visibility Wind Dir Wind Speed Gust Speed Precip Events Conditions
12:47 AM 52.0 °F 42.1 °F 69% 30.18 in 10.0 mi Calm Calm - N/A   Clear
1:47 AM 50.0 °F 42.1 °F 74% 30.19 in 10.0 mi Calm Calm - N/A   Clear
2:47 AM 48.9 °F 42.1 °F 77% 30.19 in 10.0 mi Calm Calm - N/A   Clear
3:47 AM 48.0 °F 42.1 °F 80% 30.19 in 10.0 mi Calm Calm - N/A   Clear
4:47 AM 50.0 °F 41.0 °F 71% 30.19 in 10.0 mi Calm Calm - N/A   Clear
5:47 AM 50.0 °F 41.0 °F 71% 30.18 in 10.0 mi Calm Calm - N/A   Clear
6:47 AM 48.0 °F 41.0 °F 77% 30.20 in 10.0 mi Calm Calm - N/A   Clear
7:47 AM 53.1 °F 42.1 °F 66% 30.22 in 10.0 mi Calm Calm - N/A   Clear
8:47 AM 60.1 °F 41.0 °F 49% 30.23 in 10.0 mi Calm Calm - N/A   Clear
9:47 AM 64.9 °F 41.0 °F 42% 30.23 in 10.0 mi Calm Calm - N/A   Clear
10:47 AM 68.0 °F 41.0 °F 37% 30.22 in 10.0 mi Calm Calm - N/A   Clear
11:47 AM 70.0 °F 39.9 °F 33% 30.19 in 10.0 mi Calm Calm - N/A   Clear
12:47 PM 70.0 °F 41.0 °F 35% 30.17 in 10.0 mi Variable 4.6 mph - N/A   Clear
1:47 PM 68.0 °F 46.0 °F 45% 30.15 in 10.0 mi Variable 3.5 mph - N/A   Clear
2:47 PM 66.9 °F 46.0 °F 47% 30.16 in 10.0 mi Calm Calm - N/A   Clear
3:47 PM 66.0 °F 44.1 °F 45% 30.16 in 10.0 mi Variable 3.5 mph - N/A   Clear
4:47 PM 63.0 °F 39.9 °F 43% 30.17 in 10.0 mi Calm Calm - N/A   Clear
5:47 PM 61.0 °F 46.9 °F 60% 30.17 in 10.0 mi Calm Calm - N/A   Clear
6:47 PM 59.0 °F 51.1 °F 75% 30.18 in 10.0 mi Calm Calm - N/A   Clear
7:47 PM 57.9 °F 51.1 °F 78% 30.18 in 10.0 mi Calm Calm - N/A   Clear
8:47 PM 57.0 °F 51.1 °F 81% 30.19 in 10.0 mi Calm Calm - N/A   Clear
9:47 PM 55.9 °F 50.0 °F 80% 30.19 in 7.0 mi Calm Calm - N/A   Clear
10:47 PM 55.0 °F 48.9 °F 80% 30.20 in 10.0 mi Calm Calm - N/A   Clear
11:47 PM 55.0 °F 46.9 °F 74% 30.19 in 10.0 mi Calm Calm - N/A   Clear